Zurück zum Katalog

STARLINK-32122

AktivKommunikationVLEO
NORAD 60285·PAYLOAD·🇺🇸 United States

Gestartet Jul 28, 2024 von Cape Canaveral Space Force Station

Loading…

Nächste Überflüge (nächste 24 Stunden)

TLE

AktuellSource: CelesTrak SupGP

Epoche: Sep 14, 2026, 21:07 UTC

1 60285C 24132H   26257.88034722  .00044631  00000+0  14353-2 0  2571
2 60285  53.1588 252.8492 0001318  91.3457  57.0858 15.31677151    18

Verfolge STARLINK-32122 in Echtzeit mit AllMySat

Download on the App Store